This demonstration page uses our WeatherBlox Daily Observations layout. Learn more.

Left ArrowRight Arrow

41.12389, -100.76542

Hourly Observations for January 5, 2019

Temp ( °F °C ) Dew Point ( °F °C ) Humidity (%) Winds ( mph kmh ) Pressure ( in mb ) Visibility ( mi km ) Precip ( " mm )
12:53 am 00:53 Clear 26 -3.3 23 -5 88 88 NNW 3 6 29.97 1015 10 16 0.00 0.00
1:53 am 01:53 Clear 27 -2.8 23 -5 85 85 NW 5 7 29.97 1015 10 16 0.00 0.00
2:53 am 02:53 Clear 30 -1.1 26 -3.3 85 85 NW 3 6 29.97 1015 10 16 0.00 0.00
3:53 am 03:53 Clear 27 -2.8 25 -3.9 92 92 Calm 29.97 1015 10 16 0.00 0.00
4:53 am 04:53 Clear 25 -3.9 22 -5.6 88 88 Calm 29.96 1015 10 16 0.00 0.00
5:53 am 05:53 Clear 24 -4.4 21 -6.1 88 88 W 5 7 30.00 1016 10 16 0.00 0.00
6:53 am 06:53 Clear 24 -4.4 22 -5.6 91 91 N 3 6 30.01 1016 10 16 0.00 0.00
7:53 am 07:53 Clear 24 -4.4 20 -6.7 84 84 NW 6 9 30.04 1017 10 16 0.00 0.00
8:53 am 08:53 Sunny 27 -2.8 23 -5 85 85 WNW 3 6 30.06 1018 10 16 0.00 0.00
9:53 am 09:53 Sunny 34 1.1 29 -1.7 82 82 NW 5 7 30.07 1018 10 16 0.00 0.00
10:53 am 10:53 Sunny 40 4.4 29 -1.7 65 65 NW 6 9 30.06 1018 10 16 0.00 0.00
11:53 am 11:53 Sunny 46 7.8 31 -0.6 56 56 W 5 7 30.04 1017 10 16 0.00 0.00
12:53 pm 12:53 Sunny 51 10.6 33 0.6 50 50 Calm 30.01 1016 10 16 0.00 0.00
1:53 pm 13:53 Sunny 54 12.2 34 1.1 47 47 E 9 15 29.99 1016 10 16 0.00 0.00
2:53 pm 14:53 Sunny 54 12.2 33 0.6 45 45 ENE 7 11 29.99 1016 10 16 0.00 0.00
3:53 pm 15:53 Sunny 51 10.6 34 1.1 52 52 ENE 9 15 30.00 1016 10 16 0.00 0.00
4:53 pm 16:53 Sunny 43 6.1 32 0 65 65 ESE 9 15 30.02 1017 10 16 0.00 0.00
5:53 pm 17:53 Clear 39 3.9 31 -0.6 73 73 ENE 5 7 30.04 1017 10 16 0.00 0.00
6:53 pm 18:53 Clear 36 2.2 30 -1.1 79 79 E 6 9 30.06 1018 10 16 0.00 0.00
7:53 pm 19:53 Clear 37 2.8 31 -0.6 79 79 E 5 7 30.05 1018 10 16 0.00 0.00
8:53 pm 20:53 Clear 34 1.1 31 -0.6 89 89 SE 5 7 30.04 1017 10 16 0.00 0.00
9:53 pm 21:53 Clear 35 1.7 31 -0.6 85 85 E 3 6 30.01 1016 10 16 0.00 0.00
10:53 pm 22:53 Clear 35 1.7 31 -0.6 85 85 E 6 9 30.00 1016 10 16 0.00 0.00
11:53 pm 23:53 Clear 35 1.7 31 -0.6 85 85 E 6 9 29.98 1015 10 16 0.00 0.00

Powered by AerisWeather